IU2EVW-13 Weather Reports


Display with metric or nautical units.
time (UTC)temp
F
wind
direction
speed
MPH
gust
MPH
rain 1hr
in
rain 24hr
in
rain mn
in
humidity
%
barometer
mb
20260503034103 50 0.0 0.0 0.00 0.00 0.00 55 1022.4
20260503032101 51 0.0 0.0 0.00 0.00 0.00 54 1022.4
20260503030100 51 0.0 0.0 0.00 0.00 0.00 54 1022.4
20260503024059 51 0.0 0.0 0.00 0.00 0.00 55 1022.4
20260503022058 52 0.0 0.0 0.00 0.00 0.00 54 1022.7
20260503020056 52 0.0 0.0 0.00 0.00 0.00 54 1022.9
20260503014055 52 0.0 0.0 0.00 0.00 0.00 53 1022.9
20260503012054 52 0.0 0.0 0.00 0.00 0.00 54 1023.1
20260503010052 52 0.0 0.0 0.00 0.00 0.00 54 1023.2
20260503004051 53 0.0 0.0 0.00 0.00 0.00 53 1023.3
20260503002050 53 0.0 0.0 0.00 0.00 0.00 53 1023.5
20260503000049 53 0.0 0.0 0.00 0.00 0.00 52 1023.6
20260502234047 53 0.0 0.0 0.00 0.00 0.00 52 1023.8
20260502232046 53 0.0 0.0 0.00 0.00 0.00 52 1023.8
20260502230044 54 0.0 0.0 0.00 0.00 0.00 52 1024.0
20260502224043 54 0.0 0.0 0.00 0.00 0.00 51 1023.9
20260502222042 54 0.0 0.0 0.00 0.00 0.00 50 1024.0
20260502220040 55 0.0 0.0 0.00 0.00 0.00 51 1024.0
20260502214039 55 0.0 0.0 0.00 0.00 0.00 49 1023.9
20260502212037 55 0.0 0.0 0.00 0.00 0.00 49 1023.8
20260502210036 57 0.0 0.0 0.00 0.00 0.00 46 1023.7
20260502204035 57 0.0 0.0 0.00 0.00 0.00 46 1023.7
20260502202034 57 0.0 0.0 0.00 0.00 0.00 44 1023.6
20260502200032 58 0.0 0.0 0.00 0.00 0.00 43 1023.6
20260502194031 59 0.0 0.0 0.00 0.00 0.00 42 1023.4
20260502192029 59 0.0 0.0 0.00 0.00 0.00 40 1023.1
20260502190028 60 0.0 0.0 0.00 0.00 0.00 40 1023.0
20260502184027 60 0.0 0.0 0.00 0.00 0.00 39 1022.6
20260502182025 62 0.0 0.0 0.00 0.00 0.00 38 1022.3
20260502164018 76 0.0 0.0 0.00 0.00 0.00 25 1021.7
20260502162017 77 0.0 0.0 0.00 0.00 0.00 22 1021.8
20260502152013 77 0.0 0.0 0.00 0.00 0.00 22 1022.3
20260502121955 67 0.0 0.0 0.00 0.00 0.00 35 1024.8
20260502113947 64 0.0 0.0 0.00 0.00 0.00 40 1025.4
20260502111946 64 0.0 0.0 0.00 0.00 0.00 36 1025.8
20260502105944 64 0.0 0.0 0.00 0.00 0.00 41 1026.1
20260502103943 62 0.0 0.0 0.00 0.00 0.00 40 1026.4
20260502101942 61 0.0 0.0 0.00 0.00 0.00 45 1026.7
20260502065928 51 0.0 0.0 0.00 0.00 0.00 61 1028.8
20260502063927 50 0.0 0.0 0.00 0.00 0.00 60 1028.8
20260502061925 50 0.0 0.0 0.00 0.00 0.00 59 1029.0
20260502055924 49 0.0 0.0 0.00 0.00 0.00 60 1029.1
20260502053923 48 0.0 0.0 0.00 0.00 0.00 62 1029.2
20260502051921 48 0.0 0.0 0.00 0.00 0.00 62 1029.1
20260502045920 47 0.0 0.0 0.00 0.00 0.00 62 1029.0
20260502043918 47 0.0 0.0 0.00 0.00 0.00 62 1028.9
20260502041917 47 0.0 0.0 0.00 0.00 0.00 62 1028.8
20260502035916 47 0.0 0.0 0.00 0.00 0.00 61 1028.8